| time (UTC) | temp C | wind direction | speed KPH | gust KPH | rain 1hr cm | rain 24hr cm | rain mn cm | humidity % | barometer mb |
| 20260506004459 | 1 | 355 | 0.0 | 0.0 | 0.03 | 2.46 | 2.41 | 93 | 1013.5 |
| 20260506003958 | 1 | 355 | 0.0 | 0.0 | 0.03 | 2.46 | 2.41 | 94 | 1013.5 |
| 20260506003458 | 1 | 355 | 0.0 | 0.0 | 0.03 | 2.46 | 2.41 | 94 | 1013.4 |
| 20260506002959 | 1 | 355 | 0.0 | 0.0 | 0.03 | 2.46 | 2.41 | 94 | 1013.5 |
| 20260506002458 | 1 | 355 | 0.0 | 0.0 | 0.00 | 2.44 | 2.39 | 94 | 1013.5 |
| 20260506001959 | 1 | 355 | 0.0 | 1.6 | 0.03 | 2.44 | 2.39 | 94 | 1013.5 |
| 20260505235959 | 1 | 350 | 0.0 | 0.0 | 0.08 | 2.46 | 2.39 | 93 | 1013.0 |
| 20260505234959 | 1 | 0 | 0.0 | 0.0 | 0.10 | 2.49 | 2.39 | 93 | 1012.9 |
| 20260505232459 | 1 | 350 | 0.0 | 0.0 | 0.15 | 2.49 | 2.39 | 93 | 1012.8 |
| 20260505231959 | 1 | 0 | 1.6 | 4.8 | 0.13 | 2.46 | 2.36 | 93 | 1012.7 |
| 20260505231459 | 1 | 355 | 1.6 | 4.8 | 0.13 | 2.46 | 2.36 | 92 | 1012.7 |
| 20260505230458 | 2 | 0 | 3.2 | 4.8 | 0.13 | 2.44 | 2.34 | 93 | 1012.7 |
| 20260505224459 | 2 | 0 | 0.0 | 4.8 | 0.15 | 2.39 | 2.29 | 93 | 1012.1 |
| 20260505223959 | 2 | 0 | 0.0 | 4.8 | 0.15 | 2.36 | 2.26 | 93 | 1012.2 |
| 20260505223458 | 2 | 0 | 1.6 | 4.8 | 0.18 | 2.36 | 2.26 | 93 | 1012.2 |
| 20260505222959 | 2 | 0 | 0.0 | 0.0 | 0.15 | 2.34 | 2.24 | 93 | 1012.2 |
| 20260505222459 | 2 | 0 | 1.6 | 4.8 | 0.18 | 2.34 | 2.24 | 93 | 1012.2 |
| 20260505221459 | 2 | 358 | 3.2 | 9.7 | 0.18 | 2.34 | 2.24 | 93 | 1012.0 |
| 20260505220959 | 2 | 351 | 1.6 | 4.8 | 0.18 | 2.31 | 2.21 | 92 | 1011.9 |
| 20260505220459 | 2 | 355 | 1.6 | 9.7 | 0.18 | 2.31 | 2.21 | 93 | 1012.1 |
| 20260505215458 | 2 | 9 | 1.6 | 4.8 | 0.13 | 2.26 | 2.16 | 92 | 1012.1 |
| 20260505214959 | 2 | 9 | 3.2 | 11.3 | 0.13 | 2.24 | 2.13 | 92 | 1011.9 |
| 20260505214459 | 2 | 17 | 1.6 | 11.3 | 0.15 | 2.24 | 2.13 | 92 | 1011.9 |
| 20260505212959 | 2 | 19 | 0.0 | 8.0 | 0.13 | 2.18 | 2.08 | 92 | 1011.5 |
| 20260505212459 | 2 | 56 | 1.6 | 4.8 | 0.10 | 2.16 | 2.06 | 92 | 1011.5 |
| 20260505211458 | 2 | 26 | 1.6 | 4.8 | 0.13 | 2.16 | 2.06 | 92 | 1011.7 |
| 20260505210959 | 2 | 5 | 1.6 | 8.0 | 0.13 | 2.13 | 2.03 | 92 | 1011.8 |
| 20260505204458 | 2 | 84 | 1.6 | 11.3 | 0.13 | 2.08 | 1.98 | 91 | 1011.2 |
| 20260505203959 | 2 | 84 | 3.2 | 16.1 | 0.13 | 2.08 | 1.98 | 91 | 1011.2 |
| 20260505202459 | 2 | 32 | 0.0 | 4.8 | 0.13 | 2.06 | 1.96 | 91 | 1011.7 |
| 20260505201459 | 2 | 53 | 3.2 | 8.0 | 0.10 | 2.03 | 1.93 | 91 | 1011.6 |
| 20260505200959 | 2 | 0 | 1.6 | 9.7 | 0.10 | 2.01 | 1.91 | 90 | 1011.7 |
| 20260505195958 | 2 | 0 | 3.2 | 4.8 | 0.13 | 1.98 | 1.88 | 90 | 1011.8 |
| 20260505194959 | 2 | 39 | 3.2 | 8.0 | 0.13 | 1.96 | 1.85 | 91 | 1011.8 |
| 20260505194459 | 2 | 70 | 4.8 | 9.7 | 0.13 | 1.96 | 1.85 | 91 | 1011.7 |
| 20260505193959 | 2 | 0 | 1.6 | 8.0 | 0.13 | 1.96 | 1.85 | 91 | 1011.8 |
| 20260505193459 | 2 | 351 | 1.6 | 11.3 | 0.13 | 1.93 | 1.83 | 92 | 1011.8 |
| 20260505192458 | 2 | 1 | 3.2 | 9.7 | 0.13 | 1.93 | 1.83 | 92 | 1011.8 |
| 20260505191459 | 2 | 351 | 3.2 | 11.3 | 0.13 | 1.93 | 1.83 | 91 | 1011.7 |
| 20260505190959 | 2 | 4 | 3.2 | 11.3 | 0.10 | 1.91 | 1.80 | 91 | 1011.8 |
| 20260505190459 | 2 | 3 | 3.2 | 8.0 | 0.08 | 1.88 | 1.78 | 90 | 1011.8 |
| 20260505185459 | 3 | 1 | 3.2 | 9.7 | 0.08 | 1.85 | 1.75 | 89 | 1010.9 |
| 20260505183459 | 4 | 0 | 0.0 | 0.0 | 0.03 | 1.80 | 1.70 | 88 | 1010.9 |
| 20260505182459 | 3 | 0 | 0.0 | 0.0 | 0.03 | 1.80 | 1.70 | 88 | 1011.0 |
| 20260505180959 | 3 | 0 | 0.0 | 0.0 | 0.03 | 1.80 | 1.70 | 88 | 1011.1 |
| 20260505174459 | 3 | 0 | 0.0 | 0.0 | 0.05 | 1.78 | 1.68 | 89 | 1010.5 |
| 20260505174000 | 3 | 0 | 0.0 | 0.0 | 0.08 | 1.78 | 1.68 | 89 | 1010.5 |
| 20260505172459 | 3 | 6 | 0.0 | 0.0 | 0.13 | 1.78 | 1.68 | 90 | 1011.2 |
| 20260505171959 | 3 | 10 | 0.0 | 0.0 | 0.15 | 1.78 | 1.68 | 90 | 1011.1 |
| 20260505171459 | 3 | 10 | 0.0 | 0.0 | 0.15 | 1.78 | 1.68 | 90 | 1010.9 |
| 20260505170459 | 3 | 9 | 0.0 | 0.0 | 0.20 | 1.78 | 1.68 | 90 | 1010.9 |
| 20260505163959 | 2 | 9 | 0.0 | 0.0 | 0.23 | 1.70 | 1.60 | 91 | 1011.3 |
| 20260505162959 | 2 | 9 | 0.0 | 0.0 | 0.23 | 1.68 | 1.57 | 91 | 1011.3 |
| 20260505162459 | 2 | 9 | 0.0 | 0.0 | 0.23 | 1.65 | 1.55 | 91 | 1011.3 |
| 20260505161959 | 2 | 9 | 0.0 | 0.0 | 0.23 | 1.63 | 1.52 | 91 | 1011.4 |
| 20260505160500 | 2 | 9 | 0.0 | 0.0 | 0.25 | 1.57 | 1.47 | 92 | 1011.7 |
| 20260505152959 | 1 | 9 | 0.0 | 0.0 | 0.20 | 1.45 | 1.35 | 92 | 1011.6 |
| 20260505152459 | 1 | 9 | 0.0 | 0.0 | 0.18 | 1.42 | 1.32 | 92 | 1011.7 |
| 20260505151000 | 1 | 10 | 0.0 | 0.0 | 0.10 | 1.35 | 1.24 | 92 | 1011.6 |
| 20260505150459 | 1 | 10 | 0.0 | 0.0 | 0.10 | 1.32 | 1.22 | 92 | 1011.7 |
| 20260505140500 | 1 | 10 | 0.0 | 0.0 | 0.00 | 1.22 | 1.12 | 92 | 1011.9 |
| 20260505122000 | 2 | 16 | 0.0 | 0.0 | 0.05 | 0.97 | 0.86 | 91 | 1009.7 |
| 20260505121459 | 2 | 16 | 0.0 | 0.0 | 0.05 | 0.97 | 0.86 | 91 | 1009.8 |
| 20260505121000 | 2 | 16 | 0.0 | 0.0 | 0.03 | 0.94 | 0.84 | 91 | 1009.8 |
| 20260505120000 | 2 | 16 | 0.0 | 0.0 | 0.03 | 0.91 | 0.81 | 91 | 1009.0 |
| 20260505115500 | 2 | 17 | 1.6 | 4.8 | 0.03 | 0.91 | 0.81 | 91 | 1009.0 |
| 20260505115000 | 2 | 0 | 0.0 | 4.8 | 0.03 | 0.91 | 0.81 | 91 | 1008.9 |
| 20260505114459 | 2 | 0 | 0.0 | 4.8 | 0.03 | 0.91 | 0.81 | 91 | 1008.9 |
| 20260505114000 | 2 | 353 | 1.6 | 4.8 | 0.05 | 0.91 | 0.81 | 91 | 1008.9 |
| 20260505113500 | 2 | 356 | 3.2 | 8.0 | 0.05 | 0.91 | 0.81 | 91 | 1008.5 |
| 20260505113000 | 2 | 0 | 0.0 | 3.2 | 0.05 | 0.91 | 0.81 | 91 | 1008.4 |
| 20260505112459 | 2 | 0 | 1.6 | 8.0 | 0.08 | 0.91 | 0.81 | 91 | 1008.3 |
| 20260505112000 | 3 | 348 | 1.6 | 9.7 | 0.10 | 0.91 | 0.81 | 91 | 1008.3 |
| 20260505111459 | 3 | 0 | 3.2 | 9.7 | 0.10 | 0.91 | 0.81 | 90 | 1008.2 |
| 20260505111000 | 3 | 355 | 1.6 | 4.8 | 0.13 | 0.91 | 0.81 | 91 | 1008.1 |
| 20260505110500 | 3 | 355 | 0.0 | 8.0 | 0.13 | 0.91 | 0.81 | 91 | 1008.0 |
| 20260505095959 | 3 | 355 | 4.8 | 14.5 | 0.10 | 0.79 | 0.69 | 88 | 1006.4 |
| 20260505094959 | 4 | 3 | 9.7 | 20.9 | 0.10 | 0.76 | 0.66 | 88 | 1006.2 |
| 20260505094500 | 5 | 355 | 4.8 | 11.3 | 0.10 | 0.76 | 0.66 | 88 | 1006.0 |
| 20260505094000 | 5 | 5 | 4.8 | 9.7 | 0.13 | 0.76 | 0.66 | 89 | 1006.0 |
| 20260505093000 | 5 | 354 | 6.4 | 14.5 | 0.13 | 0.76 | 0.66 | 88 | 1006.0 |
| 20260505092000 | 6 | 357 | 6.4 | 16.1 | 0.08 | 0.71 | 0.61 | 89 | 1005.6 |
| 20260505091500 | 6 | 31 | 1.6 | 19.3 | 0.08 | 0.71 | 0.61 | 89 | 1005.5 |
| 20260505090500 | 6 | 5 | 1.6 | 9.7 | 0.08 | 0.71 | 0.61 | 89 | 1005.3 |
| 20260505085459 | 6 | 13 | 1.6 | 4.8 | 0.08 | 0.69 | 0.58 | 87 | 1005.0 |
| 20260505083500 | 6 | 13 | 0.0 | 4.8 | 0.08 | 0.64 | 0.53 | 87 | 1004.7 |
| 20260505081500 | 6 | 12 | 0.0 | 0.0 | 0.18 | 0.64 | 0.53 | 89 | 1004.6 |
| 20260505081000 | 6 | 12 | 0.0 | 0.0 | 0.23 | 0.64 | 0.53 | 89 | 1004.4 |
| 20260505080500 | 6 | 12 | 0.0 | 0.0 | 0.23 | 0.64 | 0.53 | 89 | 1004.4 |
| 20260505075459 | 6 | 12 | 0.0 | 0.0 | 0.25 | 0.61 | 0.51 | 89 | 1004.5 |
| 20260505074459 | 6 | 12 | 0.0 | 1.6 | 0.25 | 0.61 | 0.51 | 89 | 1004.5 |
| 20260505073001 | 7 | 13 | 0.0 | 0.0 | 0.23 | 0.53 | 0.43 | 90 | 1004.5 |
| 20260505072500 | 7 | 13 | 0.0 | 3.2 | 0.20 | 0.48 | 0.38 | 90 | 1004.5 |
| 20260505071500 | 7 | 13 | 1.6 | 4.8 | 0.23 | 0.46 | 0.36 | 89 | 1004.4 |
| 20260505065500 | 7 | 351 | 0.0 | 11.3 | 0.15 | 0.36 | 0.25 | 87 | 1003.3 |
| 20260505064000 | 7 | 2 | 4.8 | 16.1 | 0.13 | 0.33 | 0.23 | 85 | 1003.0 |
| 20260505062500 | 8 | 351 | 3.2 | 11.3 | 0.08 | 0.28 | 0.18 | 82 | 1002.3 |
| 20260505061000 | 10 | 89 | 0.0 | 0.0 | 0.03 | 0.13 | 0.03 | 83 | 1001.5 |
| 20260505054000 | 10 | 89 | 0.0 | 0.0 | 0.00 | 0.10 | 0.10 | 80 | 1000.7 |
| 20260505053000 | 10 | 89 | 0.0 | 0.0 | 0.00 | 0.10 | 0.10 | 80 | 1000.4 |
| 20260505052500 | 10 | 89 | 0.0 | 0.0 | 0.00 | 0.10 | 0.10 | 80 | 1000.4 |
| 20260505052000 | 9 | 89 | 1.6 | 4.8 | 0.00 | 0.10 | 0.10 | 81 | 1000.3 |
| 20260505051500 | 9 | 78 | 0.0 | 0.0 | 0.00 | 0.10 | 0.10 | 82 | 1000.4 |
| 20260505051000 | 10 | 78 | 0.0 | 0.0 | 0.00 | 0.10 | 0.10 | 82 | 1000.4 |
| 20260505041500 | 10 | 78 | 0.0 | 0.0 | 0.00 | 0.10 | 0.10 | 82 | 1000.6 |
| 20260505031501 | 10 | 0 | 0.0 | 0.0 | 0.00 | 0.10 | 0.10 | 84 | 1001.1 |
| 20260505030501 | 11 | 0 | 0.0 | 0.0 | 0.00 | 0.10 | 0.10 | 85 | 1001.0 |
| 20260505030000 | 11 | 0 | 0.0 | 0.0 | 0.00 | 0.10 | 0.10 | 84 | 1002.3 |
| 20260505025001 | 11 | 0 | 0.0 | 0.0 | 0.00 | 0.10 | 0.10 | 82 | 1001.9 |
| 20260505024001 | 11 | 0 | 0.0 | 0.0 | 0.00 | 0.10 | 0.10 | 82 | 1001.9 |
| 20260505023500 | 11 | 0 | 0.0 | 0.0 | 0.00 | 0.10 | 0.10 | 81 | 1001.8 |
| 20260505021500 | 11 | 0 | 0.0 | 0.0 | 0.03 | 0.10 | 0.10 | 82 | 1001.5 |
| 20260505015500 | 11 | 0 | 0.0 | 0.0 | 0.05 | 0.10 | 0.10 | 81 | 1002.8 |
| 20260505014001 | 12 | 0 | 0.0 | 0.0 | 0.05 | 0.10 | 0.10 | 79 | 1002.5 |
| 20260505012500 | 12 | 0 | 0.0 | 0.0 | 0.05 | 0.10 | 0.10 | 77 | 1002.6 |
| 20260505011000 | 12 | 0 | 0.0 | 0.0 | 0.03 | 0.08 | 0.08 | 74 | 1002.0 |
| 20260505005500 | 13 | 0 | 0.0 | 0.0 | 0.03 | 0.05 | 0.05 | 67 | 1003.0 |
| 20260505005001 | 13 | 2 | 3.2 | 9.7 | 0.05 | 0.05 | 0.05 | 63 | 1002.7 |